DateTimeUTC,F1_A11,F1_S11,BsB_S11,BsG_S11,BsR_S11,BbsB_S11,BbsG_S11,BbsR_S11,BaB_A11,BaG_A11,BaR_A11,Tu_S11,T_S11,Uu_S11,U_S11,P_S11,T1_A11
2021-06-08T14:00:00Z,00000200,20000000,,,,,,,-000.10,-000.20,0000.46,19.3,25.6,03.8,02.6,0669.9,31.1
2021-06-08T14:01:00Z,00000200,20000000,,,,,,,0000.21,0000.12,0000.08,19.3,25.6,03.8,02.6,0669.9,31.1
2021-06-08T14:02:00Z,00000200,20000000,,,,,,,-000.23,0000.14,-000.24,19.3,25.6,03.8,02.6,0669.9,31.1
2021-06-08T14:03:00Z,00000200,60000000,,,,,,,0000.33,-000.14,0000.14,19.3,25.6,03.8,02.6,0669.9,31.1
2021-06-08T14:04:00Z,00000200,40000000,0001.25,0000.49,0000.16,0000.38,0000.30,-000.11,0000.20,0000.63,0000.34,19.3,25.5,04.0,02.8,0670.8,31.1
2021-06-08T14:05:00Z,00000200,00000000,0000.26,0000.49,-000.01,0000.93,-000.00,0000.01,0000.07,0000.11,0000.16,19.4,25.4,04.0,02.8,0670.9,31.1
2021-06-08T14:06:00Z,00000200,00000000,0000.56,0000.42,0000.63,0000.61,-000.11,0000.06,0000.22,0000.25,0000.24,19.4,25.4,04.0,02.8,0670.9,31.1
2021-06-08T14:07:00Z,00000200,00000000,0001.32,0000.83,-000.09,0000.48,-000.22,-000.00,0000.65,0000.41,0000.27,19.4,25.4,04.1,02.8,0670.8,31.1
2021-06-08T14:08:00Z,00000200,00000000,0000.89,0000.69,0000.22,0000.17,0000.03,0000.12,0000.14,-000.07,0000.42,19.4,25.4,04.2,02.9,0670.8,31.1
2021-06-08T14:09:00Z,00000200,00000000,0000.66,0000.65,0000.33,0000.09,0000.23,-000.17,-000.18,0000.44,-000.16,19.4,25.4,04.1,02.8,0670.8,31.1
2021-06-08T14:10:00Z,00000200,00000000,0000.07,0000.95,0000.38,0000.96,0000.25,-000.17,0000.39,-000.23,0000.36,19.4,25.4,04.2,02.9,0670.8,31.1
2021-06-08T14:11:00Z,00000200,00000000,0000.47,0000.67,0000.36,0000.47,-000.07,0000.02,0000.29,0000.49,-000.23,19.4,25.4,04.2,02.9,0670.8,31.1
2021-06-08T14:12:00Z,00000200,00000000,0000.45,0000.59,0000.56,0000.66,0000.17,0000.41,0000.24,-000.01,0000.29,19.4,25.4,04.1,02.9,0670.8,31.1
2021-06-08T14:13:00Z,00000200,00000000,0000.81,0000.56,0000.23,0000.15,0000.31,-000.00,0000.09,0000.19,0000.12,19.4,25.4,04.2,02.9,0670.8,31.1
2021-06-08T14:14:00Z,00000200,00000000,0001.02,0000.56,0000.26,0000.00,0000.04,-000.21,0000.30,0000.09,-000.04,19.4,25.4,04.2,02.9,0670.8,31.1
2021-06-08T14:15:00Z,00000200,00000000,0000.62,0000.69,0000.24,0000.29,0000.08,-000.12,0000.35,0000.28,0000.39,19.4,25.4,04.2,02.9,0670.8,31.1
2021-06-08T14:16:00Z,00000200,00000000,0000.68,0000.53,0000.45,0000.47,0000.19,-000.19,0000.15,0000.52,0000.11,19.4,25.4,04.3,03.0,0670.8,31.0
2021-06-08T14:17:00Z,00000200,00000000,0001.05,0000.72,0000.74,0000.04,0000.21,0000.18,-000.06,-000.48,-000.10,19.4,25.4,04.1,02.9,0670.8,31.1
2021-06-08T14:18:00Z,00000200,00000000,0000.74,0000.98,0000.64,-000.03,0000.17,0000.11,0000.56,0000.54,0000.34,19.4,25.4,04.1,02.8,0670.8,31.1
2021-06-08T14:19:00Z,00000200,00000000,0000.80,0000.51,0000.26,0000.28,0000.29,-000.12,0000.39,0000.81,0000.48,19.4,25.4,04.2,02.9,0670.8,31.1
2021-06-08T14:20:00Z,00000200,00000000,0000.67,0000.87,-000.06,0000.44,0000.20,0000.12,0000.35,-000.16,0000.12,19.4,25.4,04.3,03.0,0670.8,31.1
2021-06-08T14:21:00Z,00000200,00000000,0000.78,0000.78,0000.51,0000.61,0000.16,0000.05,0000.36,0000.13,0000.32,19.4,25.4,04.3,03.0,0670.8,31.1
2021-06-08T14:22:00Z,00000200,00000000,0001.03,0000.22,0000.21,0000.17,-000.08,-000.43,-000.00,0000.22,-000.20,19.4,25.3,04.3,03.0,0670.8,31.1
2021-06-08T14:23:00Z,00000200,00000000,0000.82,0000.28,0000.14,0000.69,0000.26,-000.01,-000.18,0000.12,0000.10,19.4,25.4,04.3,03.0,0670.8,31.1
2021-06-08T14:24:00Z,00000200,00000000,0000.11,0000.54,0000.14,0000.58,0000.24,-000.21,0001.03,0000.52,0000.38,19.4,25.4,04.4,03.0,0670.8,31.1
2021-06-08T14:25:00Z,00000200,00000000,0001.54,0000.48,0000.24,0000.49,-000.01,0000.04,-000.42,0000.11,0000.13,19.4,25.4,04.5,03.2,0670.8,31.1
2021-06-08T14:26:00Z,00000200,00000000,0000.77,0000.55,0000.27,-000.10,0000.20,-000.36,0000.41,0000.19,0000.01,19.4,25.3,04.5,03.1,0670.8,31.1
2021-06-08T14:27:00Z,00000200,00000000,-000.01,0000.60,0000.11,0000.25,0000.04,0000.22,0000.20,0000.39,0000.52,19.4,25.4,04.4,03.1,0670.8,31.1
2021-06-08T14:28:00Z,00000200,00000000,0000.84,0000.56,0000.43,-000.65,0000.19,0000.16,0000.33,-000.20,-000.15,19.4,25.4,04.4,03.1,0670.8,31.1
2021-06-08T14:29:00Z,00000200,00000000,0000.87,0000.68,0000.35,0000.21,0000.03,0000.12,0000.28,0000.54,0000.31,19.4,25.4,04.4,03.0,0670.8,31.1
2021-06-08T14:30:00Z,00000200,00000000,0000.02,0000.96,0000.22,0000.34,0000.16,0000.10,0000.13,0000.33,0000.19,19.4,25.4,04.5,03.1,0670.8,31.1
2021-06-08T14:31:00Z,00000200,00000000,0000.63,0000.50,0000.07,0000.52,0000.10,0000.11,0000.65,-000.04,0000.31,19.4,25.4,04.6,03.2,0670.8,31.1
2021-06-08T14:32:00Z,00000200,00000000,0000.53,0000.65,-000.03,0000.41,0000.04,0000.01,0000.29,0000.74,0000.35,19.4,25.4,04.5,03.1,0670.8,31.1
2021-06-08T14:33:00Z,00000200,00000000,0000.59,0000.36,0000.31,0000.22,0000.09,0000.02,-000.10,-000.31,-000.11,19.4,25.3,04.6,03.2,0670.8,31.1
2021-06-08T14:34:00Z,00000200,00000000,0001.09,0000.76,0000.02,0000.59,0000.06,-000.09,0000.04,0000.50,0000.10,19.4,25.4,04.5,03.1,0670.8,31.1
2021-06-08T14:35:00Z,00000200,00000000,-000.02,0000.79,0000.27,0000.62,0000.11,-000.08,0000.58,0000.19,0000.42,19.4,25.3,04.4,03.1,0670.8,31.1
2021-06-08T14:36:00Z,00000200,00000000,0000.78,0000.76,0000.53,0000.50,0000.19,0000.49,0000.24,0000.32,0000.14,19.4,25.3,04.5,03.1,0670.9,31.1
2021-06-08T14:37:00Z,00000200,00000000,0000.72,0000.78,0000.01,0000.79,0000.04,-000.05,0000.19,0000.06,0000.03,19.4,25.4,04.5,03.2,0670.9,31.1
2021-06-08T14:38:00Z,00000200,00000000,0000.70,0000.78,-000.02,0000.57,0000.07,-000.06,0000.17,0000.06,-000.08,19.4,25.3,04.6,03.2,0670.8,31.1
2021-06-08T14:39:00Z,00000200,00000000,0000.71,0000.57,0000.15,0000.09,0000.31,0000.07,0000.20,0000.03,0000.33,19.4,25.3,04.5,03.1,0670.8,31.1
2021-06-08T14:40:00Z,00000200,00000000,0000.58,0001.01,0000.32,-000.24,0000.25,-000.02,0000.15,0000.54,0000.06,19.4,25.3,04.5,03.1,0670.8,31.1
2021-06-08T14:41:00Z,00000200,00000000,0000.46,0000.55,0000.21,0000.85,0000.04,-000.11,0000.03,-000.27,0000.08,19.4,25.3,04.4,03.0,0670.8,31.1
2021-06-08T14:42:00Z,00000200,00000000,0000.87,0000.62,0000.57,0000.37,0000.15,0000.32,0000.48,0001.04,0000.59,19.4,25.3,04.5,03.1,0670.8,31.1
2021-06-08T14:43:00Z,00000200,00000000,0000.67,0000.47,0000.34,0000.16,0000.22,0000.19,0000.23,-000.39,0000.05,19.4,25.3,04.7,03.3,0670.9,31.1
2021-06-08T14:44:00Z,00000200,00000000,0000.62,0000.65,0000.36,0000.09,0000.25,-000.04,0000.45,0000.81,-000.02,19.4,25.3,04.8,03.3,0670.8,31.1
2021-06-08T14:45:00Z,00000200,00000000,0000.31,0000.54,0000.48,0000.24,0000.18,0000.22,-000.09,-000.17,0000.72,19.4,25.3,04.7,03.3,0670.8,31.1
2021-06-08T14:46:00Z,00000200,00000000,0000.14,0000.68,0000.27,0000.40,0000.20,0000.09,0000.26,0000.18,-000.28,19.4,25.3,04.7,03.3,0670.8,31.1
2021-06-08T14:47:00Z,00000200,00000000,0001.18,0000.42,0000.29,0000.61,0000.30,-000.24,0000.39,0000.43,0000.22,19.4,25.3,04.6,03.2,0670.8,31.1
2021-06-08T14:48:00Z,00000200,00000000,0000.10,0000.63,0000.49,0000.05,0000.25,0000.14,0000.33,0000.12,-000.08,19.4,25.3,04.7,03.3,0670.8,31.1
2021-06-08T14:49:00Z,00000200,00000000,0001.17,0000.67,0000.24,0000.33,0000.00,-000.08,0000.12,0000.17,0000.43,19.4,25.3,04.8,03.3,0670.8,31.1
2021-06-08T14:50:00Z,00000200,00000000,0001.47,0000.29,0000.03,0000.51,0000.21,-000.03,0000.32,0000.27,0000.01,19.4,25.3,04.8,03.4,0670.8,31.1
2021-06-08T14:51:00Z,00000200,00000000,0000.78,0000.66,0000.51,0000.77,-000.17,0000.23,0000.44,0000.66,0000.27,19.3,25.3,04.8,03.4,0670.9,31.1
2021-06-08T14:52:00Z,00000200,00000000,0000.99,0000.60,0000.17,0000.20,0000.18,0000.15,0000.30,0000.01,0000.34,19.4,25.3,04.9,03.4,0670.9,31.1
2021-06-08T14:53:00Z,00000200,00000000,0001.12,0000.80,0000.29,0000.44,0000.10,0000.08,0000.66,0000.48,0000.26,19.4,25.3,05.0,03.5,0670.9,31.1
2021-06-08T14:54:00Z,00000200,00000000,0000.82,0000.45,0000.20,0000.93,0000.01,-000.14,-000.32,0000.09,0000.25,19.4,25.3,05.0,03.5,0670.9,31.1
2021-06-08T14:55:00Z,00000200,00000000,0001.17,0000.61,0000.20,0000.30,0000.14,0000.20,0000.36,0000.10,-000.03,19.4,25.3,04.9,03.4,0670.9,31.1
2021-06-08T14:56:00Z,00000200,00000000,0000.59,0000.45,0000.33,0000.41,0000.02,0000.08,0000.09,-000.16,0000.13,19.4,25.3,05.0,03.5,0670.9,31.1
2021-06-08T14:57:00Z,00000200,40000000,,,,,,,-000.21,-000.04,-000.21,19.4,25.3,05.3,03.7,0670.9,31.1
2021-06-08T14:58:00Z,00000200,60000000,,,,,,,0000.20,0000.44,0000.06,19.2,25.4,04.8,03.3,0669.8,31.1
2021-06-08T14:59:00Z,00000200,20000000,,,,,,,0000.46,0000.38,0000.74,19.2,25.5,04.8,03.3,0669.8,31.1
